DLH8640 LIME-EGNX

Flight info

Callsign DLH8640
Flight time 1h 37m
Altitude 36000
Route ARLES DCT PUNSA DCT IBODI DCT GOTED DCT TRO DCT CLM DCT KOPOR DCT ABNUR DCT DIMAL DCT ALESO T420 HEMEL
Aircraft MD11/H-SDE1E2E3FGHIJ2J3J4J5M1RWXY/LB1D1

Departure

Time 2026-04-29 16:40
Airport Il Caravaggio International Airport (LIME)

Arrival

Time 2026-04-29 18:17
Airport East Midlands Airport (EGNX)
Time Latitude Longitude Altitude Speed Heading
2026-04-29 16:28 45.66747 9.69558 784 ft 0 kts 195°
2026-04-29 16:33 45.66767 9.69567 785 ft 2 kts 197°
2026-04-29 16:33 45.66781 9.69574 785 ft 2 kts 208°
2026-04-29 16:33 45.66793 9.69586 785 ft 2 kts 225°
2026-04-29 16:34 45.66803 9.69603 786 ft 2 kts 241°
2026-04-29 16:34 45.66808 9.69623 786 ft 2 kts 257°
2026-04-29 16:34 45.66810 9.69644 786 ft 2 kts 272°
2026-04-29 16:34 45.66809 9.69659 786 ft 0 kts 284°
2026-04-29 16:35 45.66808 9.69663 786 ft 0 kts 285°
2026-04-29 16:37 45.66811 9.69647 786 ft 7 kts 285°
2026-04-29 16:37 45.66839 9.69497 786 ft 21 kts 285°
2026-04-29 16:37 45.66867 9.69347 787 ft 24 kts 285°
2026-04-29 16:38 45.66909 9.69077 786 ft 21 kts 274°
2026-04-29 16:38 45.66948 9.68897 784 ft 15 kts 328°
2026-04-29 16:38 45.67052 9.68910 786 ft 16 kts 21°
2026-04-29 16:38 45.67099 9.69000 788 ft 1 kts 126°
2026-04-29 16:39 45.67097 9.69007 788 ft 1 kts 109°
2026-04-29 16:39 45.67090 9.69042 789 ft 5 kts 104°
2026-04-29 16:39 45.67048 9.69276 793 ft 66 kts 105°
2026-04-29 16:39 45.66840 9.70396 791 ft 164 kts 105°
2026-04-29 16:40 45.66507 9.72137 1416 ft 189 kts 104°
2026-04-29 16:40 45.66163 9.73914 2416 ft 194 kts 104°
2026-04-29 16:40 45.65902 9.75866 3079 ft 217 kts 88°
2026-04-29 16:40 45.66362 9.78059 3483 ft 245 kts 60°
2026-04-29 16:41 45.67437 9.80039 4284 ft 263 kts 38°
2026-04-29 16:41 45.69089 9.81217 5330 ft 270 kts 17°
2026-04-29 16:41 45.70920 9.81678 6337 ft 276 kts 358°
2026-04-29 16:41 45.72751 9.81035 7358 ft 280 kts 332°
2026-04-29 16:42 45.74226 9.79268 8414 ft 283 kts 306°
2026-04-29 16:42 45.75035 9.76761 9441 ft 286 kts 285°
2026-04-29 16:42 45.75432 9.73962 10438 ft 292 kts 281°
2026-04-29 16:42 45.75773 9.70998 10841 ft 318 kts 281°
2026-04-29 16:43 45.76156 9.67729 11136 ft 347 kts 281°
2026-04-29 16:43 45.76585 9.64195 11390 ft 374 kts 281°
2026-04-29 16:43 45.77056 9.60388 11771 ft 396 kts 281°
2026-04-29 16:43 45.77540 9.56517 12485 ft 405 kts 281°
2026-04-29 16:44 45.78040 9.52521 13356 ft 410 kts 282°
2026-04-29 16:44 45.78544 9.48517 14207 ft 414 kts 282°
2026-04-29 16:44 45.79063 9.44426 15075 ft 417 kts 282°
2026-04-29 16:44 45.79580 9.40356 15903 ft 420 kts 282°
2026-04-29 16:45 45.80103 9.36249 16697 ft 424 kts 282°
2026-04-29 16:45 45.80631 9.32114 17456 ft 427 kts 281°
2026-04-29 16:45 45.81166 9.27934 18230 ft 430 kts 281°
2026-04-29 16:45 45.81710 9.23697 18920 ft 434 kts 281°
2026-04-29 16:46 45.82261 9.19411 19634 ft 438 kts 281°
2026-04-29 16:46 45.82808 9.15162 20311 ft 441 kts 282°
2026-04-29 16:46 45.83369 9.10833 20969 ft 444 kts 282°
2026-04-29 16:46 45.83939 9.06449 21601 ft 448 kts 282°
2026-04-29 16:47 45.84508 9.02075 22237 ft 451 kts 282°
2026-04-29 16:47 45.85084 8.97654 22910 ft 453 kts 282°
2026-04-29 16:47 45.85666 8.93219 23510 ft 456 kts 282°
2026-04-29 16:47 45.86251 8.88761 24118 ft 459 kts 282°
2026-04-29 16:48 45.86845 8.84253 24700 ft 462 kts 282°
2026-04-29 16:48 45.87439 8.79752 25230 ft 465 kts 282°
2026-04-29 16:48 45.88044 8.75187 25768 ft 468 kts 282°
2026-04-29 16:48 45.88657 8.70573 26336 ft 469 kts 282°
2026-04-29 16:49 45.89261 8.66040 27116 ft 466 kts 282°
2026-04-29 16:49 45.89869 8.61486 27894 ft 463 kts 283°
2026-04-29 16:49 45.90466 8.56986 28724 ft 458 kts 282°
2026-04-29 16:49 45.91010 8.52555 29482 ft 454 kts 282°
2026-04-29 16:50 45.91549 8.48092 30240 ft 451 kts 282°
2026-04-29 16:50 45.92108 8.43691 30844 ft 449 kts 284°
2026-04-29 16:50 45.92938 8.39450 31424 ft 446 kts 290°
2026-04-29 16:50 45.94074 8.35353 32019 ft 442 kts 295°
2026-04-29 16:51 45.95524 8.31429 32499 ft 442 kts 300°
2026-04-29 16:51 45.97116 8.27691 33069 ft 439 kts 301°
2026-04-29 16:51 45.98700 8.24008 33606 ft 437 kts 301°
2026-04-29 16:51 46.00280 8.20320 34121 ft 434 kts 301°
2026-04-29 16:52 46.01870 8.16635 34588 ft 432 kts 301°
2026-04-29 16:52 46.03429 8.12976 34934 ft 431 kts 301°
2026-04-29 16:52 46.04999 8.09290 35278 ft 430 kts 301°
2026-04-29 16:52 46.06556 8.05635 35534 ft 431 kts 302°
2026-04-29 16:53 46.08116 8.01985 35716 ft 433 kts 301°
2026-04-29 16:53 46.09675 7.98254 35955 ft 434 kts 301°
2026-04-29 16:53 46.11212 7.94532 36132 ft 436 kts 301°
2026-04-29 16:53 46.12773 7.90762 36135 ft 437 kts 301°
2026-04-29 16:54 46.15868 7.83299 36151 ft 435 kts 301°
2026-04-29 16:54 46.18972 7.75849 36144 ft 433 kts 301°
2026-04-29 16:55 46.22066 7.68429 36139 ft 433 kts 301°
2026-04-29 16:55 46.25167 7.61006 36146 ft 433 kts 301°
2026-04-29 16:56 46.28272 7.53588 36146 ft 432 kts 301°
2026-04-29 16:56 46.31375 7.46182 36129 ft 431 kts 302°
2026-04-29 16:57 46.34484 7.38771 36124 ft 432 kts 302°
2026-04-29 16:57 46.37612 7.31332 36117 ft 433 kts 301°
2026-04-29 16:58 46.40738 7.23907 36123 ft 433 kts 301°
2026-04-29 16:58 46.43856 7.16514 36122 ft 432 kts 301°
2026-04-29 16:59 46.46981 7.09115 36140 ft 432 kts 301°
2026-04-29 16:59 46.50131 7.01665 36115 ft 433 kts 301°
2026-04-29 17:00 46.53202 6.94190 36107 ft 432 kts 300°
2026-04-29 17:00 46.56195 6.86640 36109 ft 432 kts 300°
2026-04-29 17:01 46.59193 6.79136 36101 ft 432 kts 300°
2026-04-29 17:01 46.62210 6.71610 36085 ft 432 kts 300°
2026-04-29 17:02 46.65250 6.64041 36078 ft 433 kts 300°
2026-04-29 17:02 46.68266 6.56549 36066 ft 432 kts 300°
2026-04-29 17:03 46.71306 6.49012 36063 ft 432 kts 300°
2026-04-29 17:03 46.74354 6.41458 36062 ft 432 kts 301°
2026-04-29 17:04 46.77407 6.33921 36063 ft 433 kts 300°
2026-04-29 17:04 46.80459 6.26381 36064 ft 433 kts 300°
2026-04-29 17:05 46.83515 6.18857 36066 ft 434 kts 300°
2026-04-29 17:05 46.86594 6.11279 36054 ft 433 kts 300°
2026-04-29 17:06 46.89675 6.03708 36041 ft 434 kts 301°
2026-04-29 17:06 46.92763 5.96153 36036 ft 435 kts 302°
2026-04-29 17:07 46.95959 5.90466 36040 ft 438 kts 316°
2026-04-29 17:07 46.99231 5.86903 36037 ft 442 kts 327°
2026-04-29 17:07 47.01934 5.84763 36035 ft 443 kts 330°
2026-04-29 17:08 47.07406 5.80640 36032 ft 442 kts 330°
2026-04-29 17:08 47.12801 5.76489 36038 ft 440 kts 329°
2026-04-29 17:09 47.18207 5.72296 36036 ft 440 kts 329°
2026-04-29 17:09 47.23609 5.68092 36033 ft 441 kts 329°
2026-04-29 17:10 47.29031 5.63875 36025 ft 442 kts 329°
2026-04-29 17:10 47.34479 5.59646 36049 ft 442 kts 330°
2026-04-29 17:11 47.39899 5.55437 36038 ft 441 kts 330°
2026-04-29 17:11 47.45327 5.51221 36036 ft 442 kts 330°
2026-04-29 17:12 47.50629 5.46762 36037 ft 439 kts 322°
2026-04-29 17:12 47.54406 5.41781 36044 ft 438 kts 311°
2026-04-29 17:13 47.58618 5.33371 36048 ft 437 kts 304°
2026-04-29 17:13 47.62143 5.26023 36058 ft 437 kts 305°
2026-04-29 17:14 47.65682 5.18714 36062 ft 437 kts 305°
2026-04-29 17:14 47.69223 5.11420 36060 ft 437 kts 305°
2026-04-29 17:15 47.72784 5.04113 36067 ft 437 kts 306°
2026-04-29 17:15 47.76326 4.96850 36076 ft 437 kts 306°
2026-04-29 17:16 47.79890 4.89548 36075 ft 437 kts 306°
2026-04-29 17:16 47.83443 4.82276 36069 ft 438 kts 306°
2026-04-29 17:17 47.87024 4.74964 36054 ft 439 kts 306°
2026-04-29 17:17 47.90636 4.67588 36065 ft 440 kts 306°
2026-04-29 17:18 47.94217 4.60295 36063 ft 440 kts 306°
2026-04-29 17:18 47.97823 4.52955 36057 ft 440 kts 306°
2026-04-29 17:19 48.01443 4.45593 36066 ft 440 kts 306°
2026-04-29 17:19 48.05062 4.38244 36066 ft 441 kts 306°
2026-04-29 17:20 48.08612 4.30789 36055 ft 442 kts 305°
2026-04-29 17:20 48.12189 4.23246 36044 ft 444 kts 305°
2026-04-29 17:21 48.15772 4.15723 36051 ft 445 kts 306°
2026-04-29 17:21 48.19376 4.08171 36061 ft 445 kts 306°
2026-04-29 17:22 48.22976 4.00706 36071 ft 446 kts 308°
2026-04-29 17:22 48.26960 3.93552 36065 ft 447 kts 312°
2026-04-29 17:23 48.31168 3.86719 36080 ft 448 kts 313°
2026-04-29 17:23 48.35410 3.79885 36076 ft 447 kts 313°
2026-04-29 17:24 48.39646 3.73053 36082 ft 448 kts 313°
2026-04-29 17:24 48.43893 3.66211 36075 ft 447 kts 313°
2026-04-29 17:25 48.48109 3.59428 36059 ft 447 kts 313°
2026-04-29 17:25 48.52362 3.52594 36077 ft 448 kts 313°
2026-04-29 17:26 48.56630 3.45746 36067 ft 448 kts 313°
2026-04-29 17:26 48.60904 3.38887 36075 ft 448 kts 313°
2026-04-29 17:27 48.65180 3.32036 36075 ft 449 kts 313°
2026-04-29 17:27 48.69460 3.25184 36072 ft 449 kts 313°
2026-04-29 17:28 48.73722 3.18370 36078 ft 449 kts 313°
2026-04-29 17:28 48.78025 3.11498 36076 ft 448 kts 313°
2026-04-29 17:29 48.82356 3.04751 36078 ft 450 kts 317°
2026-04-29 17:29 48.86462 2.99813 36074 ft 451 kts 326°
2026-04-29 17:30 48.92736 2.94110 36088 ft 452 kts 329°
2026-04-29 17:30 48.98186 2.89288 36088 ft 452 kts 329°
2026-04-29 17:31 49.03595 2.84485 36091 ft 452 kts 329°
2026-04-29 17:31 49.09046 2.79657 36094 ft 452 kts 329°
2026-04-29 17:32 49.14448 2.74857 36109 ft 453 kts 330°
2026-04-29 17:32 49.19912 2.70026 36100 ft 455 kts 330°
2026-04-29 17:33 49.25375 2.65184 36100 ft 455 kts 330°
2026-04-29 17:33 49.30850 2.60327 36112 ft 456 kts 330°
2026-04-29 17:34 49.36312 2.55500 36107 ft 456 kts 330°
2026-04-29 17:34 49.41789 2.50652 36116 ft 457 kts 331°
2026-04-29 17:35 49.50080 2.43321 36124 ft 460 kts 331°
2026-04-29 17:36 49.55617 2.38511 36112 ft 461 kts 332°
2026-04-29 17:36 49.61188 2.33756 36114 ft 462 kts 332°
2026-04-29 17:37 49.66526 2.29187 36116 ft 463 kts 332°
2026-04-29 17:37 49.72020 2.24475 36120 ft 464 kts 332°
2026-04-29 17:38 49.77383 2.19875 36123 ft 465 kts 332°
2026-04-29 17:38 49.82903 2.15149 36120 ft 466 kts 331°
2026-04-29 17:39 49.88424 2.10415 36125 ft 468 kts 332°
2026-04-29 17:39 49.93261 2.06274 36126 ft 469 kts 332°
2026-04-29 17:40 49.99194 2.01199 36138 ft 469 kts 332°
2026-04-29 17:40 50.04919 1.96307 36129 ft 469 kts 332°
2026-04-29 17:41 50.10636 1.91413 36142 ft 469 kts 332°
2026-04-29 17:41 50.16226 1.86239 36141 ft 469 kts 326°
2026-04-29 17:42 50.21211 1.79682 36162 ft 472 kts 317°
2026-04-29 17:42 50.25920 1.72640 36145 ft 472 kts 321°
2026-04-29 17:43 50.30948 1.65973 36149 ft 473 kts 321°
2026-04-29 17:43 50.35950 1.59267 36160 ft 476 kts 321°
2026-04-29 17:44 50.40973 1.52485 36155 ft 479 kts 321°
2026-04-29 17:44 50.45983 1.45692 36151 ft 481 kts 321°
2026-04-29 17:45 50.51059 1.38819 36165 ft 480 kts 321°
2026-04-29 17:45 50.56091 1.32018 36166 ft 479 kts 321°
2026-04-29 17:46 50.61150 1.25199 36170 ft 481 kts 321°
2026-04-29 17:46 50.66238 1.18333 36177 ft 486 kts 321°
2026-04-29 17:47 50.71400 1.11365 36177 ft 490 kts 321°
2026-04-29 17:47 50.76566 1.04405 36177 ft 492 kts 321°
2026-04-29 17:48 50.81753 0.97423 36177 ft 492 kts 321°
2026-04-29 17:48 50.86960 0.90420 36186 ft 494 kts 321°
2026-04-29 17:49 50.92087 0.83261 36188 ft 493 kts 320°
2026-04-29 17:49 50.97195 0.76018 36208 ft 493 kts 320°
2026-04-29 17:50 51.02326 0.68796 36201 ft 494 kts 320°
2026-04-29 17:50 51.07438 0.61604 36189 ft 494 kts 320°
2026-04-29 17:51 51.12593 0.54366 36197 ft 494 kts 320°
2026-04-29 17:51 51.17742 0.47143 36196 ft 496 kts 320°
2026-04-29 17:52 51.22920 0.39884 36212 ft 496 kts 320°
2026-04-29 17:52 51.28096 0.32637 36229 ft 497 kts 320°
2026-04-29 17:53 51.33276 0.25390 36223 ft 497 kts 320°
2026-04-29 17:53 51.38439 0.18168 36235 ft 496 kts 320°
2026-04-29 17:54 51.43639 0.10903 36231 ft 497 kts 320°
2026-04-29 17:54 51.48842 0.03649 36186 ft 494 kts 320°
2026-04-29 17:54 51.51420 0.00017 35575 ft 494 kts 319°
2026-04-29 17:55 51.53969 -0.03682 34819 ft 499 kts 319°
2026-04-29 17:55 51.56555 -0.07442 33983 ft 503 kts 319°
2026-04-29 17:55 51.59139 -0.11191 33061 ft 506 kts 319°
2026-04-29 17:55 51.61717 -0.14921 32002 ft 502 kts 320°
2026-04-29 17:56 51.64317 -0.18675 30950 ft 497 kts 320°
2026-04-29 17:56 51.66851 -0.22324 29910 ft 492 kts 320°
2026-04-29 17:56 51.69385 -0.25971 28828 ft 488 kts 320°
2026-04-29 17:56 51.71878 -0.29557 27745 ft 486 kts 320°
2026-04-29 17:57 51.74391 -0.33173 26656 ft 484 kts 320°
2026-04-29 17:57 51.76898 -0.36781 25547 ft 483 kts 320°
2026-04-29 17:57 51.79395 -0.40375 24436 ft 481 kts 320°
2026-04-29 17:57 51.82017 -0.43600 23345 ft 476 kts 329°
2026-04-29 17:58 51.84790 -0.46317 22534 ft 467 kts 332°
2026-04-29 17:58 51.87607 -0.48971 22320 ft 465 kts 332°
2026-04-29 17:58 51.90402 -0.51638 22287 ft 465 kts 331°
2026-04-29 17:58 51.93162 -0.54307 22268 ft 464 kts 331°
2026-04-29 17:59 51.95922 -0.57002 22263 ft 463 kts 331°
2026-04-29 17:59 51.98668 -0.59693 22269 ft 462 kts 331°
2026-04-29 17:59 52.01444 -0.62414 22273 ft 462 kts 331°
2026-04-29 17:59 52.04178 -0.65095 22278 ft 461 kts 330°
2026-04-29 18:00 52.06923 -0.67846 22272 ft 461 kts 327°
2026-04-29 18:00 52.09517 -0.70828 21349 ft 459 kts 325°
2026-04-29 18:00 52.12044 -0.73882 19451 ft 469 kts 325°
2026-04-29 18:00 52.14655 -0.77020 17852 ft 467 kts 326°
2026-04-29 18:01 52.17252 -0.80099 16515 ft 460 kts 326°
2026-04-29 18:01 52.19794 -0.83089 15143 ft 453 kts 326°
2026-04-29 18:01 52.22291 -0.86015 14449 ft 443 kts 326°
2026-04-29 18:01 52.24812 -0.88970 14385 ft 442 kts 325°
2026-04-29 18:02 52.27139 -0.92220 14286 ft 444 kts 320°
2026-04-29 18:02 52.29607 -0.95266 14203 ft 442 kts 328°
2026-04-29 18:02 52.32163 -0.98025 14102 ft 442 kts 328°
2026-04-29 18:02 52.34709 -1.00843 13995 ft 442 kts 327°
2026-04-29 18:03 52.37217 -1.03717 13888 ft 442 kts 326°
2026-04-29 18:03 52.39698 -1.06614 13788 ft 441 kts 326°
2026-04-29 18:03 52.42186 -1.09548 13684 ft 441 kts 326°
2026-04-29 18:03 52.44659 -1.12472 13584 ft 440 kts 326°
2026-04-29 18:04 52.47136 -1.15397 13483 ft 440 kts 326°
2026-04-29 18:04 52.49616 -1.18328 13362 ft 439 kts 326°
2026-04-29 18:04 52.52102 -1.21267 13257 ft 438 kts 326°
2026-04-29 18:04 52.54568 -1.24177 12963 ft 437 kts 326°
2026-04-29 18:05 52.57003 -1.27050 12432 ft 432 kts 326°
2026-04-29 18:05 52.59417 -1.29901 11824 ft 416 kts 326°
2026-04-29 18:05 52.61671 -1.32562 11117 ft 396 kts 327°
2026-04-29 18:05 52.63889 -1.35176 10341 ft 380 kts 327°
2026-04-29 18:06 52.65968 -1.37625 9586 ft 369 kts 327°
2026-04-29 18:06 52.68026 -1.40051 8825 ft 359 kts 327°
2026-04-29 18:06 52.70038 -1.42420 8050 ft 351 kts 328°
2026-04-29 18:06 52.71978 -1.44705 7288 ft 345 kts 328°
2026-04-29 18:07 52.73934 -1.47011 6496 ft 340 kts 328°
2026-04-29 18:07 52.75828 -1.49240 5720 ft 336 kts 329°
2026-04-29 18:07 52.77644 -1.51383 4964 ft 333 kts 329°
2026-04-29 18:08 52.79121 -1.52690 3091 ft 270 kts 344°
2026-04-29 18:08 52.80900 -1.53406 2368 ft 256 kts 12°
2026-04-29 18:08 52.82523 -1.52769 2062 ft 232 kts 25°
2026-04-29 18:08 52.84135 -1.52633 1999 ft 241 kts 351°
2026-04-29 18:09 52.85596 -1.54106 1985 ft 255 kts 315°
2026-04-29 18:09 52.86361 -1.56745 2001 ft 266 kts 281°
2026-04-29 18:09 52.86169 -1.59831 1978 ft 273 kts 247°
2026-04-29 18:09 52.85330 -1.62634 1953 ft 270 kts 237°
2026-04-29 18:10 52.84378 -1.65256 1938 ft 268 kts 234°
2026-04-29 18:10 52.83264 -1.67635 1997 ft 250 kts 200°
2026-04-29 18:10 52.81720 -1.67676 2009 ft 221 kts 152°
2026-04-29 18:10 52.80250 -1.66874 1894 ft 216 kts 145°
2026-04-29 18:11 52.79241 -1.65277 2064 ft 190 kts 115°
2026-04-29 18:11 52.79045 -1.63225 2035 ft 182 kts 79°
2026-04-29 18:11 52.79633 -1.61483 1857 ft 173 kts 55°
2026-04-29 18:11 52.80389 -1.59992 2074 ft 156 kts 59°
2026-04-29 18:12 52.80949 -1.58531 1882 ft 145 kts 67°
2026-04-29 18:12 52.81350 -1.57073 1935 ft 135 kts 72°
2026-04-29 18:12 52.81661 -1.55667 1949 ft 124 kts 75°
2026-04-29 18:12 52.81910 -1.54347 1948 ft 117 kts 77°
2026-04-29 18:13 52.82127 -1.53069 1964 ft 115 kts 76°
2026-04-29 18:13 52.82343 -1.51766 1968 ft 116 kts 78°
2026-04-29 18:13 52.82610 -1.50502 1959 ft 121 kts 58°
2026-04-29 18:13 52.83213 -1.49475 1809 ft 127 kts 72°
2026-04-29 18:14 52.83239 -1.48018 1613 ft 131 kts 94°
2026-04-29 18:14 52.83092 -1.46523 1564 ft 133 kts 96°
2026-04-29 18:14 52.82936 -1.45002 1453 ft 137 kts 93°
2026-04-29 18:14 52.82854 -1.43404 1373 ft 141 kts 92°
2026-04-29 18:15 52.82877 -1.41716 1293 ft 142 kts 85°
2026-04-29 18:15 52.82942 -1.40164 944 ft 129 kts 84°
2026-04-29 18:15 52.82980 -1.38739 759 ft 128 kts 86°
2026-04-29 18:15 52.83016 -1.37219 670 ft 134 kts 86°
2026-04-29 18:16 52.83048 -1.35679 485 ft 136 kts 86°
2026-04-29 18:16 52.83075 -1.34173 317 ft 122 kts 86°
2026-04-29 18:16 52.83101 -1.32909 304 ft 92 kts 89°
2026-04-29 18:16 52.83117 -1.32084 297 ft 52 kts 90°
2026-04-29 18:17 52.83124 -1.31621 291 ft 36 kts 90°
2026-04-29 18:17 52.83110 -1.31353 292 ft 16 kts 133°
2026-04-29 18:17 52.83001 -1.31323 292 ft 17 kts 191°
2026-04-29 18:17 52.82955 -1.31512 288 ft 23 kts 270°
2026-04-29 18:18 52.82952 -1.31787 288 ft 23 kts 269°
2026-04-29 18:18 52.82946 -1.32063 291 ft 22 kts 265°
2026-04-29 18:18 52.82939 -1.32342 294 ft 26 kts 269°
2026-04-29 18:18 52.82935 -1.32653 297 ft 18 kts 269°
2026-04-29 18:19 52.82933 -1.32818 299 ft 16 kts 269°
2026-04-29 18:19 52.82929 -1.33047 301 ft 22 kts 268°
2026-04-29 18:19 52.82923 -1.33286 306 ft 18 kts 268°
2026-04-29 18:19 52.82919 -1.33489 310 ft 19 kts 269°
2026-04-29 18:20 52.82914 -1.33753 310 ft 26 kts 269°
2026-04-29 18:20 52.82910 -1.34068 310 ft 26 kts 269°
2026-04-29 18:20 52.82906 -1.34280 312 ft 11 kts 269°
2026-04-29 18:20 52.82890 -1.34401 313 ft 6 kts 218°
2026-04-29 18:21 52.82843 -1.34448 312 ft 11 kts 211°
2026-04-29 18:21 52.82760 -1.34490 310 ft 13 kts 179°
2026-04-29 18:21 52.82678 -1.34488 308 ft 2 kts 198°
2026-04-29 18:21 52.82669 -1.34524 309 ft 5 kts 257°
2026-04-29 18:22 52.82665 -1.34564 310 ft 0 kts 267°